Other Public Products
Issued by NWS Grand Forks, ND

Home | Current Version | Previous Version | Graphics & Text | Print | Product List | Glossary On
Versions: 1 2 3 4 5 6 7 8 9 10 11 12 13 14 15 16 17 18 19 20 21 22 23 24 25 26 27 28 29 30 31 32 33 34 35 36 37 38 39 40 41 42 43 44 45 46 47 48 49 50
000
FPUS83 KFGF 282210
OPUFGF
PRAIRIE TO PINES WEATHER ROUNDUP
NATIONAL WEATHER SERVICE EASTERN NORTH DAKOTA/GRAND FORKS ND
400 PM CST SAT FEB 28 2015

 **SATELLITE DATA USED TO AUGMENT SKY COVER AT AUTOMATED STATIONS**
 *****  WEATHER ACROSS EASTERN NORTH DAKOTA  *****

CITY           SKY/WX    TMP DP  RH WIND       PRES   REMARKS
GRAND FORKS    CLOUDY    22  14  71 SW18      30.11S WCI   7
GRAND FORKS AF CLOUDY    23  12  63 SW12      30.10S WCI  12
GRAND CITY NWS   N/A     23 N/A N/A SW16        N/A  WCI  10
BUXTON         NOT AVBL
DEVILS LAKE    MOSUNNY   12   3  67 W17       30.09R WCI  -5
FARGO          CLOUDY    27  14  58 S21       30.15S WCI  13
WAHPETON ARPT  CLOUDY    25  12  58 S22       30.18F WCI  10
$$

 *****  WEATHER ACROSS CENTRAL AND WESTERN NORTH DAKOTA  *****

CITY           SKY/WX    TMP DP  RH WIND       PRES   REMARKS
JAMESTOWN      CLOUDY    21  11  65 NW14      30.10R WCI   8
BISMARCK       SUNNY     20   5  52 NW14G21   30.15R WCI   7
MINOT          CLOUDY    12   3  67 W16       30.12R WCI  -5
MINOT AFB      DRIZZLE   10   7  85 NW18      30.11S WCI  -8
GARRISON         N/A     13   4  67 NW20G29   30.13R WCI  -5
WILLISTON      CLOUDY    15   5  64 NW9       30.15F WCI   3
DICKINSON      CLOUDY    19   5  54 NW22      30.08R WCI   2
HETTINGER      PTSUNNY   20   4  50 NW20      30.11R WCI   4
$$

 *****  OTHER OBSERVATIONS NORTHEAST NORTH DAKOTA  *****

CITY           SKY/WX    TMP DP  RH WIND       PRES   REMARKS
WALHALLA         N/A     18  10  73 W9        30.08S WCI   6
LANGDON        NOT AVBL
CAVALIER       LGT SNOW  19  10  68 W12       30.08S WCI   7
GRAFTON        NOT AVBL
CANDO          MOCLDY     9   3  78 W18       30.09R WCI -10
FORT TOTTEN      N/A     15   5  66 NW8       29.95S WCI   4
ROLLA          MOCLDY    14   5  67 N9        30.04S WCI   2
RUGBY          FAIR       9   1  72 W18       30.11R WCI -10
 ***** THE ABOVE OBSERVATIONS ARE NON NWS ARE NOT QUALITY
        CONTROLLED AND MAY MIS-REPORT RAIN FOR SNOW...
$$

 *****  OTHER OBSERVATIONS SOUTHEAST NORTH DAKOTA *****

CITY           SKY/WX    TMP DP  RH WIND       PRES   REMARKS
COOPERSTOWN    NOT AVBL
VALLEY CITY    FLURRIES  23  18  80 W12       30.10R WCI  12
OAKES            N/A     25  16  68 SW16G22   30.12F WCI  12
GWINNER        CLOUDY    28  18  64 SW16      30.14R WCI  17
SHEYENNE NWR     N/A     25  13  59 SW15      29.95S WCI  13
BUFFALO        NOT AVBL
WYNDMERE         N/A     25  16  68 SW12        N/A  WCI  14
 ***** THE ABOVE OBSERVATIONS ARE NON NWS ARE NOT QUALITY
       CONTROLLED AND MAY MIS-REPORT RAIN FOR SNOW...
$$

  *****  WEATHER ACROSS NORTHERN MINNESOTA  *****

CITY           SKY/WX    TMP DP  RH WIND       PRES   REMARKS
FLAG ISLAND    PTSUNNY   18  10  73 S10       30.08F WCI   6
WARROAD        PTSUNNY   23  12  63 S13G20    30.09F WCI  11
ROSEAU         PTSUNNY   23  16  74 S15       30.09S WCI  10
HALLOCK        CLOUDY    21  16  79 S17       30.09S WCI   7
THF RVR FALLS  CLOUDY    23  19  86 S20G25    30.10F WCI   8
HALSTAD        NOT AVBL
FOSSTON        LGT SNOW  21  16  79 S23G29    30.13S WCI   5
BAUDETTE       CLOUDY    24   6  46 S14       30.09F WCI  12
WASKISH        PTSUNNY   27   3  36 S9G21     30.13F WCI  17
CROOKSTON      FLURRIES  25  18  74 SW25      30.13S WCI   9
$$
  *****  WEATHER ACROSS CENTRAL AND WEST MINNESOTA  *****

CITY           SKY/WX    TMP DP  RH WIND       PRES   REMARKS
BEMIDJI        PTSUNNY   23   6  48 S14G21    30.13F WCI  10
PARK RAPIDS    CLOUDY    22   9  57 S17G29    30.16F WCI   8
WADENA         CLOUDY    19   9  63 S15G22    30.19S WCI   5
DETROIT LAKES  MOSUNNY   23  16  74 SW21G26   30.15F WCI   8
MOORHEAD       CLOUDY    27  14  59 S20       30.16F WCI  13
FERGUS FALLS   PTSUNNY   21  10  63 S18G26    30.22F WCI   6
ELBOW LAKE     CLOUDY    21  13  70 S22       30.20F WCI   5
MORRIS MN      CLOUDY    23  12  63 S17G28    30.21F WCI   9
STAPLES        CLOUDY    21   9  58 S16G23    30.22F WCI   7
WHEATON        CLOUDY    21  12  68 S18       30.21F WCI   6
$$
  *****  WEATHER ELSEWHERE ACROSS MINNESOTA  *****

CITY           SKY/WX    TMP DP  RH WIND       PRES   REMARKS
DULUTH         SUNNY     21   1  41 SW16      30.25F WCI   7
INTRNTL FALLS  CLOUDY    24   0  35 SW17G26   30.14F WCI  11
ELY            NOT AVBL
CLOQUET        SUNNY     19   0  42 S16       30.26F WCI   5
BRAINERD       CLOUDY    20   5  52 S18G25    30.24F WCI   5
HIBBING        SUNNY     23  -2  33 S12G20    30.21F WCI  12
ALEXANDRIA     CLOUDY    20  10  65 S18       30.22F WCI   5
SAINT CLOUD    PTSUNNY   20   5  52 S15G25    30.30F WCI   6
MINNEAPOLIS    MOSUNNY   18   2  49 S13       30.38F WCI   5
$$

  *****  WEATHER ACROSS SOUTH DAKOTA  *****

CITY           SKY/WX    TMP DP  RH WIND       PRES   REMARKS
SIOUX FALLS    PTSUNNY   27  13  55 S16       30.22F WCI  15
BROOKINGS      NOT AVBL
WATERTOWN      SUNNY     24  13  62 S21       30.14F WCI   9
HURON          SUNNY     32  14  47 S12       30.14F WCI  23
SISSETON         N/A     26  14  60 SW17      30.16F WCI  13
ABERDEEN       MOSUNNY   29  14  53 SW13      30.14S WCI  19
MITCHELL       SUNNY     34  11  38 SW14G22   30.17F WCI  25
PIERRE         SUNNY     31   6  35 NW16      30.12R WCI  20
MOBRIDGE       MOSUNNY   26  12  55 NW15      30.10R WCI  14
RAPID CITY     SUNNY     22  11  62 N18       30.09R WCI   7
$$

  *****  SOME WEATHER IN NEARBY STATES *****

CITY           SKY/WX    TMP DP  RH WIND       PRES   REMARKS
GLASGOW MT     SUNNY     24   3  40 NW14      30.13F WCI  12
GREAT FALLS MT PTSUNNY   23   8  52 W10       30.13F WCI  12
CHEYENNE WY    CLOUDY    21  11  65 NE9       29.89F WCI  11
SCOTTSBLUFF NE SUNNY     33  10  38 VRB3      30.01F
OMAHA NE       LGT SNOW  23  17  78 S10       30.37F FOG     WCI  12
DES MOINES IA  LGT SNOW  22  16  78 S9        30.42F VSB 1   WCI  12
DAVENPORT IA   PTSUNNY   18   3  52 E12       30.51F WCI   5
CHICAGO IL     PTSUNNY   19   3  49 S7        30.56F WCI  10
EAU CLAIRE WI  SUNNY     17  -2  43 SW14      30.43F WCI   3
LA CROSSE WI   SUNNY     19  -1  41 S12       30.48F WCI   7
$$

  *****  SOME NATIONAL WEATHER *****

CITY           SKY/WX    TMP DP  RH WIND       PRES   REMARKS
LA GUARDIA NY  PTCLDY    28   0  29 CALM      30.74S
RALEIGH NC     PTSUNNY   37  13  37 E5        30.68F
ATLANTA GA     PTSUNNY   54  29  38 SE10      30.47S
NEW ORLEANS LA MOSUNNY   60  45  57 E10       30.30S
OKLAHOMA CITY  FRZ DRZL  26  21  81 NE3       30.31S
ALBUQUERQUE NM PTSUNNY   36  27  69 N6        29.91R
SALT LAKE CITY CLOUDY    43  22  43 SE6       29.69R
LOS ANGELES CA PTSUNNY   60  47  61 SW17      29.84F
BOISE ID       PTSUNNY   43  33  68 W9        29.84F
SEATTLE WA     SUNNY     53  24  32 N15       30.19S
$$

*** WEATHER ACROSS MANITOBA...SASKATCHEWAN AND ONTARIO ***
                ***ONTARIO***

CITY           SKY/WX    TMP DP  RH WIND       PRES   REMARKS
GERALDTON      CLOUDY    19   0  42 SW17G23   30.21F WCI   4
THUNDER BAY    PTSUNNY   23   5  46 SW17G23   30.28F WCI   9
SIOUX LOOKOUT  PTSUNNY   23   0  36 SW12G20   30.08F WCI  12
TORONTO        MOSUNNY   21   5  49 SW9       30.68S WCI  11
BIG TROUT LK   CLOUDY    16   7  67 W10G21    29.97S WCI   3
PICKLE LAKE    CLOUDY    19   1  45 SW13G18   30.03F WCI   7
DRYDEN         CLOUDY    23   3  42 S15G21    30.07F WCI  10
KENORA         CLOUDY    19   5  53 SW12G21   30.06F WCI   7
$$
                *** MANITOBA***

CITY           SKY/WX    TMP DP  RH WIND       PRES   REMARKS
BRANDON        MOSUNNY    9   0  66 W16       30.08S WCI  -9
DAUPHIN        SUNNY     12   3  67 W22       30.02F WCI  -7
ISLAND LAKE    CLOUDY    19   5  53 W17       29.94F WCI   4
PILOT MOUND      N/A     10   1  67 W8          N/A  WCI  -1
THE PAS        CLOUDY    18   5  57 W12G20    29.94F WCI   5
THOMPSON       FLURRIES  18  12  79 W13G20    29.83S WCI   4
WINNIPEG       CLOUDY    14   9  79 S15       30.08F WCI  -1
LYNN LAKE      LGT SNOW  14   9  79 NW10      29.85R WCI   1
CHURCHILL      MOSUNNY   -2  -8  78 NW18G25   29.84R WCI -24
GILLAM         FRZ DRZL  18  10  73 W17G23    29.80R WCI   2
$$
                ***SASKATCHEWAN***

CITY           SKY/WX    TMP DP  RH WIND       PRES   REMARKS
ESTEVAN        CRYSTALS   9   3  78 NW13      30.12F WCI  -7
KINDERSLEY     LGT SNOW  18  12  79 W15       30.08F DRFTSNOWWCI   3
LLOYDMINSTER   FLURRIES  21  16  79 W20       30.02F WCI   6
PRINCE ALBERT  FLURRIES  18  10  73 NW12      29.99S WCI   5
REGINA         CLOUDY    12   7  79 W17       30.08F WCI  -5



USA.gov is the U.S. government's official web portal to all federal, state and local government web resources and services.